User: anonymous   Login
Location: Keeble Observatory
(37.7625°N, 77.4755°W)
Time: 21:26:59
(UTC-04:00)
Language:

Cosmos 1484 Rocket - Orbit

View from above orbital plane
View from above orbital plane
View from above satellite
View from above satellite

Ground track
Ground track

The orbit data is extracted from the following two-line orbital elements,

1 14208U 83075B   18109.74447776  .00000337  00000-0  23730-4 0  9995
2 14208  97.3440 112.7835 0040003 151.0670 209.2790 15.10663994893786
Epoch (UTC): 19 April 2018 17:52:02
Eccentricity: 0.0040003
inclination: 97.3440°
perigee height: 506 km
apogee height: 562 km
right ascension of ascending node: 112.7835°
argument of perigee: 151.0670°
revolutions per day: 15.10663994
mean anomaly at epoch: 209.2790°
orbit number at epoch: 89378

The dashed part of the orbit path shows where the satellite is in the earth's shadow,  

DLR